This is the latest recevied weather packets stored in our database for station/object KB4MOX. If no packets are shown the sender has not sent any weather packets the latest 10 day(s).
| Time | Temp. | Humidity | Pressure | Rain* | Wind** | Luminosity | Snow |
|---|---|---|---|---|---|---|---|
| 1778163255 | 20° C | 98% | 1010.7 hPa | 3.05 mm | - | 34 W/m² | - |
| 1778162952 | 20° C | 98% | 1011 hPa | 7.87 mm | - | 23 W/m² | - |
| 1778162649 | 20° C | 98% | 1010.7 hPa | 6.1 mm | - | 19 W/m² | - |
| 1778162347 | 20° C | 98% | 1010.9 hPa | 0 mm | - | 32 W/m² | - |
| 1778162043 | 20° C | 98% | 1010.8 hPa | 0 mm | - | 10 W/m² | - |
| 1778161741 | 19.44° C | 98% | 1011 hPa | 0 mm | - | 8 W/m² | - |
| 1778161437 | 19.44° C | 98% | 1010.8 hPa | 0 mm | - | 10 W/m² | - |
| 1778161133 | 19.44° C | 98% | 1010.7 hPa | 1.78 mm | - | 30 W/m² | - |
| 1778160828 | 19.44° C | 98% | 1010.9 hPa | 1.78 mm | - | 15 W/m² | - |
| 1778160528 | 19.44° C | 98% | 1010.7 hPa | 0 mm | - | 8 W/m² | - |
| 1778160224 | 19.44° C | 98% | 1011 hPa | 1.27 mm | - | 7 W/m² | - |
| 1778159921 | 19.44° C | 98% | 1011.6 hPa | 0 mm | - | 5 W/m² | - |
| 1778159617 | 19.44° C | 98% | 1011.2 hPa | 0 mm | - | 5 W/m² | - |
| 1778159314 | 19.44° C | 98% | 1011.2 hPa | 1.78 mm | - | 5 W/m² | - |
| 1778159011 | 19.44° C | 98% | 1011.2 hPa | 1.78 mm | - | 8 W/m² | - |
| 1778158710 | 19.44° C | 98% | 1011.1 hPa | 3.05 mm | - | 9 W/m² | - |
| 1778158407 | 19.44° C | 98% | 1010.9 hPa | 3.05 mm | - | 19 W/m² | - |
| 1778158104 | 19.44° C | 98% | 1011 hPa | 1.78 mm | - | 17 W/m² | - |
| 1778157800 | 19.44° C | 98% | 1011 hPa | 3.05 mm | - | 19 W/m² | - |
| 1778157499 | 19.44° C | 98% | 1010.9 hPa | 8.89 mm | - | 31 W/m² | - |
| 1778157196 | 19.44° C | 98% | 1011 hPa | 18.54 mm | - | 25 W/m² | - |
| 1778156892 | 19.44° C | 98% | 1011 hPa | 14.99 mm | - | 11 W/m² | - |
| 1778156588 | 19.44° C | 98% | 1011.3 hPa | 4.32 mm | - | 13 W/m² | - |
| 1778156284 | 19.44° C | 98% | 1010.8 hPa | 4.83 mm | - | 6 W/m² | - |
| 1778155980 | 19.44° C | 98% | 1010.8 hPa | 0 mm | - | 13 W/m² | - |
* Rain latest hour (hover to see other rain measurements)
** Current wind speed in m/s (hover to see current wind gust speed)